Seward, AK

8:49 PM AKDT on April 22, 2018 (GMT -0800)
Seward

Weather History for PAWD - September, 2012

Change the Weather History Date:

Sunday, September 16, 2012

  Actual Average Record
Temperature  
Mean Temperature 48 °F -  
Max Temperature 51 °F 55 °F 72 °F (2010)
Min Temperature 46 °F 44 °F 30 °F (2003)
Degree Days  
Heating Degree Days 16    
Moisture  
Dew Point 48 °F    
Average Humidity 95    
Maximum Humidity 100    
Minimum Humidity 80    
Precipitation  
Precipitation 2.45 in - - ()
Sea Level Pressure  
Sea Level Pressure 29.54 in    
Wind  
Wind Speed 8 mph (SSE)    
Max Wind Speed 32 mph    
Max Gust Speed 48 mph    
Visibility 4 miles    
Events Rain    
Averages and records for this station are not official NWS values.
T = Trace of Precipitation, MM = Missing Value Source: NWS Daily Summary

Daily Weather History Graph

Daily Weather History Graph

Search for Another Location

Airport or City:

Astronomy

Sep. 16, 2012 Rise Set
Actual Time 7:29 AM AKDT 8:13 PM AKDT
Civil Twilight 6:47 AM AKDT 8:55 PM AKDT
Nautical Twilight 5:55 AM AKDT 9:47 PM AKDT
Astronomical Twilight 4:57 AM AKDT 10:44 PM AKDT
Moon 8:49 AM AKDT (9/16) 7:47 PM AKDT (9/16)
Length of Visible Light 14h 08m
Length of Day
12h 44m
New Moon, 1% of the Moon is Illuminated
Sep 16
New Moon
Sep 22
First Quarter
Sep 29
Full
Oct 7
Last Quarter
Oct 15
New

Hourly Weather History & Observations

Time (AKDT) Temp. Windchill Dew Point Humidity Pressure Visibility Wind Dir Wind Speed Gust Speed Precip Events Conditions
12:49 AM 48.2 °F - 44.6 °F 87% 29.71 in 2.5 mi NW 4.6 mph - 0.29 in Rain Heavy Rain
12:53 AM 48.0 °F - 44.1 °F 86% 29.71 in 2.5 mi NW 3.5 mph - 0.30 in Rain Heavy Rain
1:01 AM 46.4 °F 41.9 °F 44.6 °F 93% 29.70 in 4.0 mi NNW 9.2 mph - 0.02 in Rain Rain
1:53 AM 48.0 °F - 44.1 °F 86% 29.68 in 10.0 mi NW 4.6 mph - 0.12 in Rain Light Rain
2:53 AM 50.0 °F - 44.1 °F 80% 29.64 in 9.0 mi Variable 6.9 mph - 0.06 in Rain Light Rain
4:53 AM - - - N/A% 29.60 in - ENE 3.5 mph - N/A   Unknown
5:53 AM 46.9 °F - 46.9 °F 100% 29.60 in 5.0 mi Calm Calm - 0.20 in Rain Rain
6:53 AM 48.0 °F - 46.9 °F 96% 29.56 in 5.0 mi Calm Calm - 0.16 in Rain Rain
7:53 AM 46.9 °F - 46.9 °F 100% 29.53 in 6.0 mi East 4.6 mph - 0.14 in Rain Rain
8:53 AM 48.0 °F - 46.9 °F 96% 29.50 in 5.0 mi Calm Calm - 0.07 in Rain Light Rain
9:10 AM 48.2 °F - 46.4 °F 93% 29.50 in 2.5 mi SW 3.5 mph - 0.02 in Rain Light Rain
9:19 AM 48.2 °F - 48.2 °F 100% 29.50 in 3.0 mi Calm Calm - 0.04 in Rain Rain
9:22 AM 48.2 °F - 48.2 °F 100% 29.50 in 2.5 mi East 3.5 mph - 0.05 in Rain Rain
9:30 AM 48.2 °F - 48.2 °F 100% 29.51 in 1.8 mi Calm Calm - 0.07 in Rain Rain
9:38 AM 48.2 °F - 48.2 °F 100% 29.50 in 2.0 mi Calm Calm - 0.09 in Rain Rain
9:44 AM 48.2 °F - 48.2 °F 100% 29.50 in 1.8 mi Calm Calm - 0.10 in Rain Rain
9:51 AM 48.2 °F - 48.2 °F 100% 29.50 in 2.0 mi Calm Calm - 0.12 in Rain Rain
9:53 AM 48.0 °F - 48.0 °F 100% 29.49 in 2.0 mi Calm Calm - 0.13 in Rain Rain
9:59 AM 48.2 °F - 48.2 °F 100% 29.48 in 1.8 mi Calm Calm - 0.02 in Rain Rain
10:08 AM 48.2 °F - 48.2 °F 100% 29.48 in 2.5 mi Calm Calm - 0.04 in Rain Rain
10:25 AM 48.2 °F - 48.2 °F 100% 29.46 in 1.8 mi Calm Calm - 0.08 in Rain Rain
10:30 AM 48.2 °F - 48.2 °F 100% 29.47 in 2.0 mi Calm Calm - 0.09 in Rain Rain
10:37 AM 48.2 °F - 48.2 °F 100% 29.47 in 1.8 mi Calm Calm - 0.10 in Rain Light Rain
10:53 AM 48.9 °F - 48.9 °F 100% 29.45 in 1.5 mi Calm Calm - 0.15 in Rain Rain
11:25 AM 50.0 °F - 48.2 °F 94% 29.45 in 1.8 mi Calm Calm - 0.16 in Rain Heavy Rain
11:37 AM 50.0 °F - 48.2 °F 94% 29.45 in 1.5 mi Calm Calm - 0.23 in Rain Heavy Rain
11:42 AM 50.0 °F - 50.0 °F 100% 29.45 in 1.5 mi Calm Calm - 0.25 in Rain Heavy Rain
11:53 AM 51.1 °F - 50.0 °F 96% 29.45 in 2.0 mi South 9.2 mph - 0.31 in Rain Heavy Rain
11:58 AM 51.8 °F - 50.0 °F 94% 29.45 in 2.0 mi South 16.1 mph 21.9 mph 0.02 in Rain Heavy Rain
12:22 PM 50.0 °F - 48.2 °F 94% 29.45 in 1.8 mi SSE 15.0 mph 23.0 mph 0.13 in Rain Rain
12:31 PM 50.0 °F - 48.2 °F 94% 29.46 in 2.0 mi SSE 18.4 mph 28.8 mph 0.16 in Rain Rain
12:53 PM 50.0 °F - 48.9 °F 96% 29.47 in 2.5 mi SSE 23.0 mph 31.1 mph 0.22 in Rain Rain
1:06 PM 50.0 °F - 48.2 °F 94% 29.47 in 4.0 mi SSE 23.0 mph 34.5 mph 0.03 in Rain Rain
1:27 PM 48.2 °F - 48.2 °F 100% 29.49 in 2.5 mi SSE 24.2 mph 31.1 mph 0.08 in Rain Rain
1:35 PM 48.2 °F - 48.2 °F 100% 29.49 in 4.0 mi SSE 23.0 mph 28.8 mph 0.09 in Rain Rain
1:53 PM 48.9 °F - 48.9 °F 100% 29.50 in 4.0 mi SSE 15.0 mph 31.1 mph 0.12 in Rain Rain
2:53 PM 50.0 °F - 46.9 °F 89% 29.53 in 10.0 mi SSE 24.2 mph 34.5 mph 0.07 in   Overcast
3:53 PM 51.1 °F - 48.0 °F 89% 29.54 in 10.0 mi SSE 21.9 mph 33.4 mph 0.00 in   Overcast
4:53 PM 50.0 °F - 46.9 °F 89% 29.55 in 6.0 mi SSE 23.0 mph 31.1 mph 0.07 in Rain Light Rain
5:03 PM 50.0 °F - 46.4 °F 87% 29.55 in 10.0 mi SSE 19.6 mph 27.6 mph 0.00 in   Overcast
5:53 PM 48.9 °F - 46.9 °F 93% 29.55 in 2.5 mi South 17.3 mph 32.2 mph 0.07 in Rain Heavy Rain
6:08 PM 48.2 °F - 48.2 °F 100% 29.54 in 2.5 mi SSE 25.3 mph 42.6 mph 0.03 in Rain Light Rain
6:15 PM 50.0 °F - 46.4 °F 87% 29.53 in 6.0 mi SSE 31.1 mph 43.7 mph 0.03 in Rain Light Rain
6:53 PM 50.0 °F - 48.0 °F 93% 29.54 in 6.0 mi SSE 29.9 mph 46.0 mph 0.06 in Rain Light Rain
7:17 PM 50.0 °F - 48.2 °F 94% 29.54 in 4.0 mi SSE 28.8 mph 41.4 mph 0.02 in Rain Light Rain
7:44 PM 50.0 °F - 48.2 °F 94% 29.53 in 4.0 mi SSE 29.9 mph 41.4 mph 0.06 in Rain Rain
7:53 PM 50.0 °F - 48.0 °F 93% 29.55 in 7.0 mi SSE 27.6 mph 48.3 mph 0.07 in Rain Light Rain
8:02 PM 48.2 °F - 48.2 °F 100% 29.56 in 5.0 mi SSE 32.2 mph 47.2 mph 0.01 in Rain Light Rain
8:07 PM 48.2 °F - 48.2 °F 100% 29.56 in 2.5 mi South 24.2 mph 47.2 mph 0.06 in Rain Heavy Rain
8:10 PM 48.2 °F - 48.2 °F 100% 29.56 in 1.8 mi North - - 0.07 in Rain Heavy Rain
8:17 PM 48.2 °F - 48.2 °F 100% 29.56 in - North - - 0.07 in   Unknown
8:53 PM 50.0 °F - 46.9 °F 89% 29.58 in 6.0 mi South 18.4 mph 39.1 mph 0.10 in Rain Rain
9:53 PM 48.9 °F - 48.0 °F 97% 29.64 in 7.0 mi SSE 21.9 mph 32.2 mph 0.03 in Rain Light Rain
10:43 PM 50.0 °F - 48.2 °F 94% 29.67 in 10.0 mi SSE 18.4 mph 26.5 mph 0.00 in   Overcast
10:53 PM 50.0 °F - 48.0 °F 93% 29.67 in 10.0 mi SSE 16.1 mph 27.6 mph 0.00 in   Overcast
11:11 PM 50.0 °F - 48.2 °F 94% 29.67 in 10.0 mi SSE 20.7 mph 26.5 mph N/A   Overcast
11:53 PM 50.0 °F - 48.9 °F 96% 29.69 in 10.0 mi SSE 15.0 mph 21.9 mph N/A   Overcast